x

Tanner Bank - 121nm West Of San Diego, Ca (46047) Wave Buoy

11:50am - Mon 30th May 2016 All times are PDT. -7 hours from GMT.

  • Sig Wave height 6.2ft
  • Swell Direction
  • Peak Period 17s
  • Average Period 9s
  • Wind
    9mph, 11mph gusts
  • Sea Temp 61°f
  • 空気 Temp 58°f
  • Sea Pressure 1016.8mb
  • Tanner Bank - 121nm West Of San Diego, Ca
  • Tanner Bank - 121nm West Of San Diego, Ca

More Historic Weather Station data

Upgrade to MSW Pro to gain access to the past 30 days of data for over 8000 Wavebouys and Weather Stations around the globe.

Join Pro

Comparision Forecast

View Surf forecast
   
Mon 05/30 11:50am 6ft 17s 9s 9 11 mph 1016.8mb 61f 58f
10:50am 5.5ft 17s 9s 7 11 mph 1016.9mb 61f 58f
9:50am 6ft 10s 8s 9 11 mph 1017.1mb 61f 57f
8:50am 6ft 10s 8s 4 7 mph 1017mb 61f 57f
7:50am 6ft 10s 8s 7 9 mph 1016.8mb 61f 57f
6:50am 5.5ft 9s 8s 9 11 mph 1016.4mb 61f 58f
5:50am 5ft 9s 8s 9 13 mph 1015.9mb 61f 58f
4:50am 5ft 14s 8s 11 13 mph 1015.9mb 61f 58f
3:50am 5ft 10s 8s 11 13 mph 1015.9mb 61f 58f
2:50am 5ft 10s 8s 9 13 mph 1015.9mb 61f 58f
1:50am 4.5ft 10s 8s 11 16 mph 1016.3mb 61f 58f
12:50am 5ft 10s 8s 9 13 mph 1016.5mb 61f 58f
Sun 05/29 11:50pm 5ft 10s 8s 9 16 mph 1016.6mb 61f 58f
10:50pm 4.5ft 15s 8s 9 13 mph 1016.9mb 61f 58f
9:50pm 4.5ft 9s 8s 9 13 mph 1016.7mb 62f 59f
8:50pm 5.5ft 14s 8s 9 11 mph 1016.1mb 62f 59f
7:50pm 6ft 10s 8s 9 11 mph 1016mb 62f 59f
6:50pm 5.5ft 9s 8s 9
mph
1015.6mb 62f 59f
5:50pm 5.5ft 10s 8s 9
mph
1015.5mb 62f 60f
4:50pm 5.5ft 15s 8s 7 11 mph 1015.8mb 63f 60f
3:50pm 5.5ft 10s 8s 7 9 mph 1016.1mb 63f 60f
2:50pm 5ft 9s 8s 4 7 mph 1016.5mb 63f 60f
12:50pm 5.5ft 15s 8s 7 9 mph 1016.9mb 62f 60f
11:50am 5ft 8s 8s 2 4 mph 1017.3mb 62f 60f
10:50am 5ft 10s 8s 2 4 mph 1017mb 62f 60f
9:50am 5.5ft 10s 9s 2
mph
1016.9mb 61f 60f
8:50am 5ft 10s 8s  -  2 mph 1016.7mb 61f 59f
7:50am 6ft 10s 8s 2 4 mph 1016mb 61f 59f
6:50am 6ft 11s 8s 4 7 mph 1015.4mb 61f 59f
5:50am 7ft 11s 8s  -  2 mph 1015mb 61f 59f
4:50am 6ft 10s 8s 4 7 mph 1014.4mb 61f 59f
3:50am 7ft 10s 8s 7
mph
1014.2mb 61f 59f
2:50am 6.5ft 10s 9s 7 9 mph 1014.2mb 61f 59f
1:50am 6ft 10s 8s 4 9 mph 1014.3mb 61f 59f
12:50am 6ft 10s 8s 2 4 mph 1014.5mb 61f 59f
Sat 05/28 11:50pm 6ft 10s 8s 4 7 mph 1014.6mb 61f 59f
10:50pm 6ft 11s 8s 2 4 mph 1014.6mb 62f 60f
9:50pm 6.5ft 11s 8s 4 7 mph 1014.3mb 61f 60f
8:50pm 6ft 11s 8s 2 4 mph 1013.8mb 62f 60f
7:50pm 6.5ft 10s 8s 4 7 mph 1012.9mb 61f 60f
6:50pm 7ft 10s 8s 7 11 mph 1012.3mb 62f 60f
5:50pm 6ft 10s 8s 9 16 mph 1012mb 62f 60f
4:50pm 7ft 10s 8s 9 11 mph 1011.9mb 62f 60f
3:50pm 6ft 10s 8s 7 11 mph 1012.2mb 62f 60f
2:50pm 6ft 11s 8s 4
mph
1012.5mb 63f 60f
1:50pm 7ft 10s 8s 4 7 mph 1012.9mb 62f 59f
12:50pm 6ft 11s 8s 7 9 mph 1013.2mb 62f 59f
11:50am 6ft 11s 8s 2 4 mph 1013mb 61f 59f
10:50am 6ft 11s 8s 7 9 mph 1012.9mb 61f 58f
9:50am 5.5ft 11s 7s 4 9 mph 1012.5mb 60f 58f
8:50am 6ft 11s 8s 7 13 mph 1012.3mb 60f 58f
7:50am 5.5ft 10s 7s 7 9 mph 1011.9mb 60f 58f
6:50am 6ft 11s 7s 9 11 mph 1011.6mb 60f 57f
5:50am 6ft 11s 7s 9 13 mph 1011.2mb 60f 57f
4:50am 6ft 10s 7s 7 11 mph 1010.9mb 60f 57f
3:50am 7ft 11s 7s 7 11 mph 1010.8mb 60f 57f
2:50am 7ft 10s 7s 9 11 mph 1011mb 60f 57f
1:50am 7ft 10s 7s 9 13 mph 1011.6mb 60f 57f
12:50am 6.5ft 9s 7s 11 13 mph 1012mb 60f 57f
Fri 05/27 11:50pm 7ft 10s 6s 11 16 mph 1012.5mb 60f 57f
10:50pm 6.5ft 10s 6s 11 13 mph 1012.7mb 60f 58f
9:50pm 7ft 9s 6s 18 22 mph 1012.2mb 60f 58f
8:50pm 7ft 10s 6s 20 22 mph 1012mb 60f 58f
7:50pm 7ft 10s 6s 22 27 mph 1011.8mb 61f 58f
6:50pm 7ft 10s 6s 22 27 mph 1011.6mb 61f 58f
5:50pm 7ft 10s 6s 20 25 mph 1012.1mb 61f 58f
4:50pm 7ft 9s 6s 18 22 mph 1012.3mb 61f 58f
3:50pm 7.5ft 9s 7s 18 20 mph 1012.8mb 61f 58f
2:50pm 7ft 9s 7s 18 20 mph 1013.2mb 61f 58f
1:50pm 7ft 10s 6s 18 20 mph 1013.4mb 61f 58f
12:50pm 7ft 9s 6s 18 20 mph 1013.7mb 61f 58f
11:50am 7ft 9s 6s 18 20 mph 1014.1mb 61f 58f
10:50am 6.5ft 9s 6s 18 20 mph 1014.3mb 61f 57f
9:50am 6.5ft 8s 6s 16 18 mph 1014.8mb 61f 57f
8:50am 7ft 8s 6s 18 22 mph 1014.8mb 61f 57f
7:50am 7ft 8s 6s 18 25 mph 1014.5mb 61f 57f
6:50am 7ft 8s 6s 18 22 mph 1014.5mb 61f 58f
5:50am 7ft 7s 6s 18 22 mph 1014.4mb 61f 58f
4:50am 8ft 8s 6s 18 25 mph 1014.3mb 61f 57f
3:50am 8ft 8s 6s 18 22 mph 1014.1mb 61f 57f
2:50am 8ft 8s 6s 20 25 mph 1014.9mb 61f 58f
1:50am 7.5ft 8s 6s 22 27 mph 1015.6mb 61f 58f
12:50am 7ft 7s 6s 22 29 mph 1016.1mb 61f 58f
Thu 05/26 11:50pm 6.5ft 8s 6s 20 25 mph 1016.5mb 61f 58f
10:50pm 7ft 8s 6s 20 27 mph 1016.9mb 61f 58f
9:50pm 6.5ft 8s 6s 20 27 mph 1016.7mb 61f 58f
8:50pm 7ft 7s 6s 20 27 mph 1016.4mb 61f 58f